Terug naar catalogus

STARLINK-4108

ActiefCommunicatieVLEO
NORAD 52834·PAYLOAD·🇺🇸 United States

Gelanceerd Jun 17, 2022 vanaf Cape Canaveral Space Force Station

Loading…

Volgende Passages (komende 24 uur)

TLE

VersSource: CelesTrak SupGP

Epoch: Sep 15, 2026, 02:03 UTC

1 52834C 22062E   26258.08590278 -.00053062  00000+0 -17060-2 0  2587
2 52834  53.1581 254.0307 0001347  92.6043  27.4860 15.31735409    13

Volg STARLINK-4108 in realtime met AllMySat

Download on the App Store